Flag for Germany Weather for the Past 2 Weeks in Mörfelden-Walldorf, Hesse, Germany

Now
48 °F

Light rain. Broken clouds.


Feels Like: 42 °F
Forecast: 37 / 43 °F
Wind: 18 mph from South

Location: Frankfurt-M-Flughafen Airport

Current Time: Feb 9, 2016 at 2:53:46 PM

Latest Report: Feb 9, 2016 at 2:20 PM


Visibility: N/A

Pressure: 29.15 "Hg

Humidity: 94%

Dew point: 46 °F

Location of Mörfelden-WalldorfLocation

Historic Weather in Mörfelden-Walldorf — Graph

°F

Mörfelden-Walldorf Temperature Yesterday

Maximum temperature yesterday: 50 °F (at 10:50 AM)
Minimum temperature yesterday: 43 °F (at 12:20 AM)
Average temperature yesterday: 45 °F

High & Low Weather Summary for the Past Weeks

 TemperatureHumidityPressure
High57 °F (Feb 1, 3:50 AM)100% (Jan 25, 7:50 PM)30.39 "Hg (Jan 25, 7:50 PM)
Low28 °F (Jan 29, 4:50 AM)54% (Jan 25, 3:50 PM)29.18 "Hg (Feb 9, 1:20 PM)
Average45 °F79%30.04 "Hg
* Reported Jan 25 1:20 PM — Feb 9 1:20 PM, Mörfelden-Walldorf, Weather by CustomWeather, © 2016

Note: Actual official high and low records may vary slightly from our data, if they occured in-between our weather recording intervals... More about our weather records

Advertising

Mörfelden-Walldorf Weather History for the Previous 24 Hours

 ConditionsComfort  
Time TempWeatherWind HumidityBarometerVisibility
1:20 PM
Tue, Feb 9
46 °FLight rain. Partly sunny.21 mph93%29.18 "HgN/A
12:50 PM45 °FLight rain. Broken clouds.14 mph93%29.24 "HgN/A
12:20 PM45 °FLight rain. Partly sunny.12 mph93%29.27 "Hg4 mi
11:50 AM45 °FLight rain. Broken clouds.9 mph93%29.33 "HgN/A
11:20 AM45 °FLight rain. Low clouds.12 mph93%29.36 "HgN/A
10:50 AM45 °FRain. Broken clouds.15 mph87%29.39 "Hg6 mi
10:20 AM45 °FLight rain. Partly sunny.12 mph87%29.45 "HgN/A
9:50 AM45 °FLight rain. Broken clouds.13 mph81%29.47 "HgN/A
9:20 AM45 °FLight rain. Partly sunny.14 mph81%29.50 "HgN/A
8:50 AM43 °FPartly sunny.9 mph87%29.50 "HgN/A
8:20 AM43 °FPartly sunny.10 mph81%29.53 "HgN/A
7:50 AM43 °FBroken clouds.10 mph87%29.53 "HgN/A
7:20 AM43 °FPassing clouds.12 mph87%29.56 "HgN/A
6:50 AM43 °FPassing clouds.10 mph87%29.56 "HgN/A
6:20 AM43 °FSprinkles. Passing clouds.14 mph87%29.59 "HgN/A
5:50 AM45 °FSprinkles. Partly cloudy.24 mph76%29.59 "HgN/A
5:20 AM45 °FPassing clouds.16 mph76%29.62 "HgN/A
4:50 AM45 °FPassing clouds.16 mph76%29.62 "HgN/A
4:20 AM45 °FPassing clouds.16 mph76%29.59 "HgN/A
3:50 AM46 °FPartly cloudy.13 mph71%29.62 "HgN/A
3:20 AM46 °FPartly cloudy.14 mph71%29.62 "HgN/A
2:50 AM46 °FPartly cloudy.18 mph66%29.62 "HgN/A
2:20 AM46 °FPartly cloudy.20 mph66%29.62 "HgN/A
1:50 AM46 °FPassing clouds.15 mph66%29.62 "HgN/A
1:20 AM46 °FPassing clouds.13 mph66%29.62 "HgN/A
12:50 AM45 °FPassing clouds.17 mph71%29.62 "HgN/A
12:20 AM46 °FPassing clouds.20 mph62%29.62 "HgN/A
11:50 PM
Mon, Feb 8
45 °FPassing clouds.21 mph66%29.59 "HgN/A
11:20 PM46 °FPassing clouds.21 mph62%29.59 "HgN/A
10:50 PM45 °FPassing clouds.21 mph71%29.59 "HgN/A
10:20 PM45 °FPassing clouds.16 mph71%29.59 "HgN/A
9:50 PM45 °FPassing clouds.16 mph71%29.56 "HgN/A
9:20 PM45 °FPassing clouds.20 mph71%29.56 "HgN/A
8:50 PM45 °FPassing clouds.16 mph71%29.56 "HgN/A
8:20 PM45 °FPassing clouds.18 mph71%29.53 "HgN/A
7:50 PM45 °FClear.16 mph71%29.53 "Hg10 mi
7:20 PM43 °FPassing clouds.18 mph76%29.53 "HgN/A
6:50 PM45 °FClear.23 mph71%29.53 "Hg10 mi
6:20 PM45 °FPassing clouds.24 mph71%29.50 "HgN/A
5:50 PM45 °FSprinkles. Passing clouds.26 mph71%29.47 "HgN/A
5:20 PM43 °FPartly sunny.18 mph81%29.47 "HgN/A
4:50 PM43 °FSprinkles. Partly sunny.18 mph87%29.47 "HgN/A
4:20 PM43 °FStrong thunderstorms. Partly sunny.24 mph87%29.50 "Hg1 mi
3:50 PM43 °FThunderstorms. Broken clouds.29 mph87%29.47 "Hg2 mi
3:20 PM50 °FSprinkles. Broken clouds.20 mph71%29.45 "HgN/A
2:50 PM50 °FSprinkles. Partly sunny.21 mph71%29.45 "HgN/A
2:20 PM50 °FSprinkles. Partly sunny.20 mph76%29.45 "HgN/A
Weather by CustomWeather, © 2016

See weather overviewHow to use our weather pages